Showing default

KUIPER-00380, 68920

Orbit data source: Space-Track

KUIPER-00380, 68920 is a payload satellite owned by Kuiper Systems (US) in LEO that was launched on Thu, 30 Apr 2026 UTC via an ARIANE 64 launch vehicle from the French Guiana (FRGUI). Payload-class satellites include a variety of spacecraft equipped with specific instruments for various scientific and technological missions. These include communications satellites like Starlink; space stations such as the ISS; scientific satellites like the Hubble; Earth observation satellites from companies like Planet Labs, Umbra, and HawkEye 360; GPS; miniature CubeSats for education and research; and military/defense satellites.

Loading next visibility...
Identifier
68920, 2026-098B
Orbit
LEO
Country
Flag of USUS
Related business
Manufacturer
Kuiper Systems
Mission
Operational spacecraft
Bus & Motor
KUIPER, Unknown motor
Mass
~490 kg wet, ~490 kg dry
Launch date (UTC)
2026-04-30 (2 months ago)
Launch vehicle
ARIANE 64
Launch site
French Guiana (FRGUI)
Object type
Payload
Rocket body
Debris
Shape & HBR
Unknown shape, 3.4 m
Radar Cross Section
Large (>1 m²)

Expand to show TLE details & history
Last TLE update: 22 hours ago

TLE from 22 hours ago
0 KUIPER-00380
1 68920U 26098B   26170.95668543  .00030016  00000-0  99102-3 0  9996
2 68920  51.8752  55.0426 0006152 151.5385 208.5936 15.31137557  7760
Epoch: 2026-06-19T22:57Z
TLE epoch observation values (Epoch: 2026-06-19T22:57:37.621Z)
Latitude
-0.00001°
Longitude
162.45762°
Altitude
476.879 km
Speed
7.627 km/s
True Right ascension
03h 40m 10s
True Declination
0° 00' 00"
Sunlit
Object was in daylight at epoch
Visualization orbit readout
Latitude
Unknown
Longitude
Unknown
Altitude
Unknown
Speed
Unknown
Apparent Right ascension
Unknown
Apparent Declination
Unknown
Sunlit
N/A
Visualization observer readout
Local Sidereal Time
07:23:45
Azimuth
Unknown
Elevation
Unknown
Doppler factor
Unknown
Orbital elements
Apogee altitude
477.097 km
Perigee altitude
468.668 km
Semi-major axis
6,851.019 km
Eccentricity
0.00062
Inclination
51.8752°
RAAN
55.0426°
Arg. of periapsis
151.5385°
True anomaly
208.55988°
Mean anomaly
208.5936°
Eccentric anomaly
208.57674°
Mean motion
3.82746 °/min
Orbital period
94.06 mins
BSTAR
0.00099102
Loading maneuver chart data...
Computing Atmospheric mass density...
Loading historical data...
Loading historical data...
Loading historical data...
Loading historical data...
Loading historical data...
Loading historical data...
Loading historical data...

Documentation

Showing up to 5 results
|